Voltar ao catálogo

COSMOS 1110

AtivoNavegaçãoLEO
NORAD 11425·PAYLOAD·🇷🇺 Russia

Lançado Jun 28, 1979 de Plesetsk Cosmodrome

Loading…

Próximas Passagens (próximas 24 horas)

TLE

AtualizadoSource: Space-Track

Época: Sep 13, 2026, 21:57 UTC

1 11425U 79060A   26256.91487832  .00000070  00000-0  34107-4 0  9994
2 11425  74.0118  85.7647 0013163 132.1106 228.1167 14.34260482467100

Acompanhe COSMOS 1110 em tempo real com AllMySat

Download on the App Store